Temp
-8 -8 -8 -8 -8 -8 -8 -8 -8 -8 -8 -8 -8 -9 -9 -9 -9 -9 -9 -9 -10 -10 -10 -10 -10 -10 -11 -11 -11 -12 -12 -12 -12 -13 -13 -13 -13 -13 -14 -14 -14 -14 -14
-9 -8 -8 -8 -8 -9 -8 -8 -8 -8 -8 -9 -9 -9 -9 -9 -9 -10 -10 -10 -10 -10 -10 -10 -10 -11 -11 -11 -12 -12 -12 -12 -13 -13 -13 -14 -14 -14 -14 -14 -15 -15 -15
-9 -9 -9 -9 -9 -9 -9 -9 -9 -9 -9 -9 -9 -9 -9 -9 -10 -10 -10 -10 -10 -10 -10 -10 -11 -11 -11 -12 -12 -12 -12 -12 -13 -13 -14 -14 -14 -14 -14 -15 -15 -15 -15
-9 -9 -9 -9 -9 -9 -9 -9 -9 -9 -9 -9 -9 -9 -10 -10 -10 -10 -10 -10 -10 -11 -11 -11 -11 -11 -12 -12 -12 -12 -13 -13 -13 -13 -14 -14 -14 -14 -14 -15 -15 -15 -15
-10 -10 -9 -9 -9 -9 -9 -9 -9 -9 -10 -10 -10 -10 -10 -10 -10 -11 -11 -10 -11 -11 -11 -11 -11 -12 -12 -12 -12 -12 -13 -13 -14 -14 -14 -14 -14 -14 -14 -15 -15 -15 -16
-10 -10 -10 -10 -10 -10 -10 -10 -10 -10 -10 -10 -10 -10 -10 -10 -11 -11 -11 -11 -11 -11 -11 -11 -11 -12 -12 -12 -12 -13 -13 -13 -13 -14 -14 -14 -14 -14 -15 -15 -15 -15 -15
-10 -10 -10 -10 -10 -10 -10 -10 -10 -10 -10 -10 -10 -10 -10 -11 -11 -11 -11 -11 -11 -11 -11 -11 -12 -12 -12 -12 -12 -13 -13 -13 -14 -14 -14 -14 -15 -15 -15 -15 -15 -15 -15
-11 -11 -11 -11 -10 -10 -10 -10 -10 -10 -10 -11 -11 -11 -11 -11 -11 -11 -12 -11 -11 -11 -11 -11 -12 -12 -12 -13 -13 -13 -13 -13 -14 -14 -14 -15 -15 -15 -15 -15 -15 -16 -16
-11 -11 -11 -11 -11 -11 -11 -11 -11 -11 -11 -11 -11 -11 -11 -11 -11 -11 -11 -12 -12 -12 -12 -12 -12 -12 -12 -13 -13 -13 -14 -14 -14 -14 -15 -15 -15 -15 -15 -15 -16 -16 -16
-11 -12 -11 -11 -11 -11 -11 -11 -11 -11 -11 -11 -11 -11 -11 -11 -11 -11 -11 -12 -12 -12 -13 -13 -13 -13 -13 -13 -13 -14 -14 -14 -14 -15 -15 -15 -15 -16 -16 -15 -15 -16 -17
-12 -12 -12 -12 -11 -11 -11 -11 -12 -12 -11 -11 -11 -11 -11 -11 -12 -12 -11 -11 -12 -12 -13 -13 -13 -13 -14 -14 -14 -14 -14 -14 -15 -15 -15 -16 -16 -16 -16 -16 -16 -16 -17
-12 -12 -12 -12 -12 -12 -12 -12 -12 -12 -12 -12 -12 -12 -12 -12 -12 -12 -12 -12 -12 -12 -13 -13 -14 -14 -14 -14 -14 -14 -15 -15 -15 -15 -16 -16 -16 -16 -16 -16 -17 -17 -18
-12 -13 -13 -13 -13 -12 -12 -12 -12 -12 -12 -12 -12 -12 -12 -12 -12 -12 -12 -12 -13 -13 -13 -13 -14 -14 -14 -14 -14 -15 -15 -15 -15 -16 -16 -16 -16 -16 -16 -16 -17 -17 -18
-14 -14 -13 -13 -13 -13 -13 -12 -12 -12 -12 -12 -12 -13 -12 -13 -12 -12 -12 -13 -13 -13 -14 -14 -14 -14 -15 -15 -15 -15 -15 -15 -15 -16 -16 -16 -16 -16 -16 -16 -16 -17 -18
-14 -14 -14 -13 -13 -13 -13 -13 -13 -13 -13 -13 -13 -13 -13 -13 -13 -13 -13 -13 -13 -13 -14 -14 -15 -15 -15 -15 -15 -15 -15 -15 -16 -16 -16 -16 -16 -16 -16 -16 -16 -17 -17
-14 -14 -14 -14 -14 -13 -13 -14 -14 -13 -13 -13 -13 -13 -13 -13 -13 -13 -13 -13 -14 -14 -14 -15 -15 -15 -15 -16 -16 -16 -16 -16 -16 -16 -16 -16 -16 -16 -16 -16 -16 -17 -17
-14 -14 -14 -14 -14 -14 -14 -14 -14 -14 -13 -14 -13 -13 -13 -13 -13 -14 -14 -14 -14 -15 -15 -15 -16 -16 -16 -16 -16 -16 -16 -17 -17 -17 -17 -16 -16 -16 -17 -17 -17 -17 -17
-15 -14 -14 -14 -14 -14 -14 -14 -14 -14 -14 -14 -14 -13 -13 -14 -14 -14 -15 -14 -15 -15 -15 -16 -16 -16 -16 -16 -16 -17 -17 -17 -17 -17 -17 -17 -17 -17 -17 -17 -17 -17 -17
-15 -15 -15 -15 -15 -15 -15 -15 -15 -15 -15 -14 -14 -14 -14 -14 -14 -15 -15 -14 -15 -16 -16 -17 -17 -16 -16 -16 -17 -17 -17 -17 -17 -17 -17 -17 -17 -17 -17 -17 -17 -17 -17
-16 -16 -15 -15 -15 -15 -15 -15 -15 -14 -15 -14 -14 -14 -15 -15 -15 -15 -15 -15 -16 -17 -17 -17 -17 -16 -17 -17 -17 -17 -17 -17 -17 -17 -17 -17 -17 -17 -17 -18 -18 -18 -18
-16 -16 -16 -16 -15 -15 -15 -15 -15 -15 -15 -15 -15 -15 -15 -16 -15 -15 -16 -16 -16 -16 -16 -16 -16 -17 -17 -17 -17 -17 -18 -18 -18 -18 -17 -17 -18 -18 -18 -18 -18 -18 -18
-17 -17 -17 -17 -16 -16 -16 -16 -15 -15 -15 -15 -15 -16 -16 -16 -16 -16 -16 -17 -16 -17 -17 -17 -17 -17 -17 -17 -18 -18 -18 -18 -18 -18 -18 -18 -18 -18 -18 -18 -18 -18 -19
-17 -17 -17 -17 -17 -17 -16 -16 -16 -16 -16 -16 -16 -16 -16 -17 -17 -17 -17 -17 -17 -17 -17 -17 -17 -18 -18 -18 -18 -18 -18 -18 -18 -18 -18 -18 -18 -18 -18 -19 -19 -19 -19
-17 -18 -18 -17 -18 -17 -17 -17 -17 -17 -17 -17 -17 -17 -17 -17 -17 -17 -17 -17 -17 -17 -17 -17 -17 -18 -18 -18 -18 -18 -18 -18 -18 -18 -18 -19 -19 -19 -19 -19 -19 -19 -20
-18 -18 -18 -18 -18 -18 -18 -17 -17 -17 -17 -18 -17 -17 -17 -17 -17 -17 -17 -17 -17 -17 -17 -18 -17 -18 -18 -18 -19 -19 -19 -19 -19 -19 -19 -19 -19 -19 -19 -20 -20 -20 -20
-19 -19 -18 -19 -19 -18 -18 -18 -18 -18 -18 -18 -18 -18 -18 -18 -17 -17 -17 -17 -18 -17 -17 -18 -18 -18 -18 -19 -19 -19 -19 -19 -19 -20 -20 -20 -20 -20 -20 -20 -20 -20 -20
Height
5869 5870 5870 5871 5871 5871 5870 5869 5868 5867 5866 5865 5863 5862 5860 5858 5856 5853 5850 5848 5846 5844 5841 5838 5835 5831 5829 5826 5823 5821 5818 5815 5812 5810 5808 5805 5804 5802 5800 5799 5798 5796 5795
5866 5866 5866 5867 5867 5866 5866 5865 5864 5863 5862 5861 5860 5858 5856 5854 5851 5849 5846 5844 5840 5838 5835 5832 5829 5826 5823 5820 5817 5815 5812 5809 5806 5803 5801 5798 5797 5795 5793 5792 5791 5790 5789
5860 5861 5862 5862 5862 5862 5861 5861 5860 5858 5857 5856 5855 5853 5851 5849 5847 5844 5841 5838 5835 5832 5829 5826 5823 5820 5817 5814 5811 5808 5805 5802 5799 5796 5794 5791 5790 5788 5787 5786 5784 5784 5783
5855 5856 5856 5857 5858 5857 5856 5856 5854 5853 5852 5851 5849 5848 5846 5844 5841 5838 5834 5831 5829 5826 5823 5820 5817 5814 5810 5807 5804 5801 5798 5795 5791 5789 5787 5785 5783 5781 5780 5778 5777 5777 5776
5850 5850 5850 5851 5852 5852 5851 5850 5849 5848 5847 5845 5843 5841 5839 5837 5835 5832 5828 5824 5822 5819 5816 5813 5810 5806 5803 5800 5797 5794 5791 5788 5784 5781 5779 5778 5776 5774 5772 5771 5770 5769 5768
5844 5845 5846 5845 5844 5845 5845 5844 5843 5841 5841 5839 5837 5836 5833 5830 5827 5824 5820 5817 5814 5812 5809 5805 5802 5798 5795 5792 5789 5786 5783 5781 5778 5775 5772 5770 5769 5767 5765 5763 5762 5761 5760
5838 5839 5839 5840 5839 5838 5838 5837 5837 5836 5834 5832 5830 5828 5826 5823 5821 5816 5813 5809 5806 5804 5800 5797 5793 5790 5787 5784 5781 5778 5776 5774 5771 5768 5766 5763 5761 5759 5757 5755 5754 5753 5751
5831 5832 5832 5832 5832 5832 5831 5830 5829 5828 5827 5825 5822 5819 5818 5816 5811 5809 5806 5802 5798 5795 5791 5788 5785 5783 5779 5776 5773 5770 5768 5767 5764 5761 5758 5755 5753 5750 5749 5746 5744 5742 5740
5823 5824 5824 5824 5824 5823 5823 5822 5821 5819 5818 5817 5814 5811 5808 5806 5803 5802 5799 5795 5790 5786 5782 5779 5776 5773 5770 5768 5765 5763 5761 5759 5757 5754 5751 5748 5745 5742 5739 5738 5735 5732 5729
5814 5814 5815 5815 5815 5815 5814 5813 5812 5811 5809 5808 5806 5803 5800 5797 5794 5792 5790 5786 5781 5777 5773 5770 5767 5764 5761 5758 5757 5755 5753 5750 5748 5746 5743 5740 5737 5734 5731 5727 5725 5724 5722
5804 5805 5806 5806 5806 5806 5805 5804 5803 5801 5800 5798 5796 5794 5792 5789 5786 5783 5782 5778 5773 5769 5765 5761 5758 5754 5752 5750 5748 5746 5744 5742 5739 5736 5734 5731 5729 5726 5722 5719 5715 5711 5708
5794 5795 5795 5795 5796 5796 5795 5795 5794 5792 5790 5789 5787 5785 5783 5780 5777 5774 5771 5768 5765 5760 5756 5752 5748 5746 5744 5742 5739 5737 5735 5732 5730 5727 5725 5722 5720 5718 5715 5711 5707 5701 5696
5784 5784 5784 5785 5786 5786 5785 5785 5784 5783 5781 5779 5778 5776 5774 5771 5768 5765 5762 5758 5754 5751 5747 5743 5740 5738 5735 5733 5730 5728 5726 5723 5720 5718 5715 5713 5712 5710 5707 5703 5699 5695 5685
5773 5774 5774 5775 5775 5775 5775 5775 5774 5773 5771 5769 5768 5766 5764 5761 5758 5755 5752 5748 5745 5742 5740 5734 5732 5729 5727 5724 5721 5719 5717 5713 5712 5709 5707 5706 5704 5701 5699 5695 5691 5688 5684
5762 5763 5764 5765 5765 5765 5765 5764 5763 5762 5761 5760 5758 5756 5753 5750 5747 5744 5741 5738 5735 5733 5730 5727 5724 5719 5717 5714 5711 5709 5707 5704 5702 5700 5699 5698 5696 5693 5690 5687 5683 5679 5674
5751 5752 5753 5753 5754 5754 5753 5753 5753 5752 5751 5749 5748 5745 5742 5740 5737 5734 5731 5729 5725 5722 5720 5717 5714 5710 5707 5704 5701 5699 5697 5695 5693 5692 5691 5690 5688 5686 5683 5680 5677 5673 5667
5740 5741 5741 5742 5742 5742 5742 5742 5741 5741 5740 5738 5736 5735 5732 5730 5727 5725 5721 5719 5716 5714 5711 5708 5705 5701 5698 5695 5692 5689 5687 5686 5685 5684 5684 5683 5681 5678 5676 5673 5670 5666 5662
5728 5729 5729 5730 5730 5730 5730 5730 5729 5729 5729 5727 5726 5724 5722 5719 5716 5715 5712 5710 5707 5704 5701 5699 5695 5692 5689 5687 5684 5681 5680 5679 5678 5678 5677 5675 5673 5671 5669 5667 5664 5660 5657
5716 5716 5717 5717 5718 5719 5718 5718 5719 5718 5718 5717 5714 5713 5711 5710 5707 5705 5703 5700 5698 5695 5692 5690 5687 5684 5681 5679 5676 5675 5673 5673 5672 5670 5669 5668 5666 5664 5661 5659 5657 5654 5652
5703 5704 5704 5705 5705 5706 5706 5706 5706 5706 5706 5706 5704 5702 5700 5699 5698 5696 5694 5691 5689 5686 5684 5681 5678 5675 5673 5671 5669 5668 5666 5665 5664 5663 5661 5659 5658 5656 5654 5652 5650 5648 5645
5692 5692 5692 5692 5693 5694 5694 5694 5694 5693 5693 5693 5692 5691 5690 5689 5688 5686 5685 5683 5681 5679 5676 5673 5671 5669 5666 5663 5662 5660 5658 5657 5655 5654 5653 5651 5650 5648 5645 5644 5642 5640 5638
5680 5680 5682 5681 5681 5681 5681 5682 5681 5682 5682 5681 5682 5681 5681 5681 5678 5678 5677 5675 5673 5671 5668 5665 5664 5661 5658 5656 5654 5653 5650 5648 5648 5645 5644 5642 5640 5638 5636 5634 5631 5630 5628
5668 5669 5671 5671 5670 5670 5671 5671 5672 5672 5671 5671 5672 5673 5673 5671 5670 5671 5669 5667 5666 5663 5661 5658 5656 5653 5650 5647 5645 5643 5642 5640 5638 5636 5633 5632 5630 5628 5625 5623 5621 5620 5618
5656 5656 5658 5659 5659 5660 5660 5661 5661 5662 5663 5663 5663 5664 5664 5663 5663 5663 5661 5659 5658 5655 5653 5650 5647 5645 5642 5639 5636 5634 5632 5630 5628 5626 5624 5621 5619 5617 5615 5612 5610 5608 5606
5646 5645 5646 5647 5647 5648 5649 5649 5651 5653 5655 5655 5656 5656 5656 5656 5656 5654 5654 5652 5650 5647 5645 5642 5638 5636 5632 5630 5627 5625 5622 5620 5618 5616 5613 5611 5608 5606 5603 5601 5598 5596 5593
5636 5636 5637 5637 5637 5637 5640 5642 5643 5646 5646 5647 5648 5648 5648 5648 5647 5647 5647 5644 5641 5639 5637 5634 5630 5627 5624 5621 5618 5615 5612 5610 5607 5605 5603 5600 5597 5594 5591 5588 5586 5583 5579
Wind_Speed
18 18 18 17 17 18 19 20 22 22 23 24 24 25 27 28 30 31 31 33 33 33 33 35 36 37 35 32 32 31 32 32 31 31 30 30 30 29 28 27 27 27 28
22 21 21 20 19 20 21 23 23 24 25 25 26 27 29 30 32 33 34 35 36 35 36 38 39 37 35 33 33 32 33 32 31 31 31 31 30 31 30 30 29 29 29
24 23 22 22 22 23 24 25 25 26 27 26 28 29 30 31 35 36 37 38 37 36 37 40 40 38 35 34 34 34 34 34 34 33 32 30 31 31 30 31 30 31 31
26 24 24 25 25 26 27 28 28 29 29 29 30 32 32 34 38 39 40 40 39 38 39 42 43 39 36 36 36 35 34 35 34 33 31 30 28 30 33 32 30 31 31
28 28 27 28 28 29 29 30 30 31 31 31 32 34 36 37 41 41 42 43 40 39 42 44 42 40 38 38 38 37 36 33 32 31 29 29 33 35 35 35 34 33 32
32 31 31 32 31 32 32 32 32 34 33 34 36 36 40 42 43 43 44 44 41 40 44 45 45 41 41 40 39 38 35 32 31 30 32 35 35 36 35 35 35 35 34
36 35 35 36 36 35 34 34 35 36 36 37 39 41 43 44 43 45 45 44 41 43 46 46 45 43 42 41 40 36 33 32 31 33 36 34 34 34 34 36 37 38 39
40 39 39 39 40 38 37 37 37 38 39 40 42 45 46 44 46 46 41 42 44 46 48 49 46 43 42 41 37 34 34 33 34 36 35 35 36 35 37 41 40 41 42
43 44 43 43 42 41 40 39 41 41 42 42 45 47 48 47 46 43 38 41 46 47 48 47 46 46 44 40 35 35 35 34 35 36 34 35 35 38 41 38 35 38 37
48 47 46 45 44 44 43 42 44 44 45 45 46 47 47 47 45 42 41 45 48 47 47 46 46 44 43 39 36 36 37 36 37 36 35 34 35 38 38 39 39 37 41
53 51 50 49 47 45 45 45 45 45 46 48 47 46 44 44 43 44 46 47 49 47 46 46 45 43 41 38 38 38 38 38 37 36 34 34 33 34 36 37 39 44 46
53 51 49 48 48 48 47 47 46 47 47 46 46 44 46 41 44 46 49 50 48 46 46 45 44 43 38 39 40 40 41 39 37 36 34 33 32 32 34 35 37 41 45
56 54 53 52 52 51 50 49 48 46 46 45 46 46 44 45 48 51 52 49 46 45 43 43 41 41 40 41 43 43 42 39 37 35 33 31 29 29 32 33 30 35 36
50 51 52 53 53 51 49 49 48 47 46 46 46 45 46 48 50 52 51 47 46 45 41 41 39 40 41 43 43 43 41 40 36 34 31 28 27 27 30 31 29 30 24
50 51 51 51 51 51 50 50 47 44 44 45 46 46 49 51 51 48 46 47 45 43 41 40 40 42 43 44 43 43 42 40 36 30 28 27 27 28 28 29 28 27 29
49 50 51 51 51 51 49 48 48 48 46 45 47 47 50 51 48 45 46 44 41 41 42 42 42 43 43 43 43 42 40 37 31 27 25 26 27 28 28 28 29 26 27
50 49 49 49 49 50 49 47 45 46 47 46 49 50 49 46 45 45 42 41 41 43 44 42 41 39 40 42 41 40 36 31 26 25 26 27 28 28 29 29 29 29 26
53 53 52 50 48 49 49 48 46 47 48 49 50 48 47 44 42 41 40 41 42 43 40 36 36 37 38 39 37 32 29 25 23 27 27 28 29 29 30 29 29 29 28
54 54 53 53 53 53 52 51 49 51 51 51 46 45 43 42 39 40 40 41 40 37 36 36 36 36 35 33 29 27 24 25 27 29 30 30 30 30 31 30 29 29 30
50 49 48 50 49 47 48 49 50 50 49 50 45 41 39 38 37 37 38 37 35 32 32 32 32 31 30 28 27 26 27 28 29 30 30 31 31 31 31 31 31 31 31
44 43 44 43 43 44 46 46 46 46 46 44 40 37 35 34 35 34 35 29 28 29 30 30 30 30 28 27 28 29 29 30 29 30 31 32 32 33 33 33 33 33 32
44 42 42 41 43 42 43 44 41 40 37 36 35 34 34 34 31 30 27 26 28 29 29 28 28 27 28 29 30 29 30 30 30 33 34 34 34 34 35 35 36 35 35
50 45 42 41 32 30 32 34 33 33 32 32 33 35 32 29 28 26 26 25 26 26 27 27 28 29 29 29 30 30 31 32 34 35 36 35 35 35 36 37 37 37 37
45 51 51 47 43 43 38 38 36 36 34 34 31 29 29 27 25 26 25 27 27 27 28 29 31 32 31 31 31 31 32 34 36 36 35 36 36 36 37 37 38 38 39
35 33 35 37 38 41 37 37 36 35 31 29 28 28 27 26 26 25 28 28 27 29 30 31 32 35 35 34 33 33 35 36 36 36 37 38 38 38 38 39 40 41 43
34 30 31 29 26 34 29 29 30 33 30 28 28 27 28 27 26 27 28 28 28 29 30 32 32 33 33 34 35 35 36 36 37 38 39 40 39 39 40 42 43 45 47
Wind_Direction
267 273 279 284 289 293 297 297 299 300 302 303 305 307 309 310 310 312 315 313 311 311 316 320 321 320 318 315 313 312 309 307 305 306 304 303 302 300 298 294 290 288 287
271 274 277 282 286 290 292 293 297 299 300 301 302 304 307 309 311 311 312 311 310 312 315 318 319 317 313 312 310 309 307 305 304 301 299 299 298 297 294 290 287 287 286
267 270 277 282 285 287 290 292 295 296 298 299 300 304 306 309 311 310 311 310 309 310 314 316 316 315 311 309 308 307 305 303 301 298 296 296 296 296 294 293 291 289 289
265 271 278 282 285 287 289 291 292 294 297 297 298 302 303 305 309 309 309 309 307 309 311 314 314 312 308 307 307 304 302 299 297 297 296 295 293 292 291 291 289 287 285
264 270 275 280 283 284 286 288 290 292 294 295 296 299 301 301 307 307 307 307 306 306 310 312 311 309 308 307 304 302 300 295 296 296 295 293 292 293 292 293 290 287 285
268 275 279 280 282 283 285 287 289 291 293 293 294 297 301 301 303 306 307 306 304 306 309 309 310 306 306 304 301 300 298 296 295 292 294 295 295 294 293 292 292 289 284
272 275 278 281 282 283 284 286 288 289 290 290 294 296 300 300 302 304 306 303 302 306 308 307 305 304 303 301 300 298 295 295 292 294 295 294 294 293 291 291 291 289 286
272 274 277 280 281 282 284 285 286 287 288 290 295 297 299 300 301 303 300 299 303 307 306 305 303 301 300 297 295 293 293 293 294 295 295 294 294 293 294 296 294 294 287
270 274 277 278 280 282 283 285 286 287 287 290 295 298 298 300 300 300 298 300 303 303 302 299 299 299 299 295 291 291 293 294 294 295 292 292 292 294 297 298 298 296 289
269 271 273 276 277 280 282 284 285 286 287 290 293 297 299 300 300 297 300 303 302 300 299 298 297 297 294 291 289 291 291 292 294 294 293 289 292 295 297 303 305 301 295
267 268 272 275 276 278 280 281 282 283 286 290 293 294 295 296 295 295 298 300 301 298 297 297 296 294 291 288 290 292 292 294 294 295 292 290 291 294 298 307 305 305 302
267 269 270 272 275 277 277 279 280 283 287 289 291 291 293 292 293 296 299 300 297 296 296 296 293 292 289 288 292 293 295 295 295 295 290 289 291 295 299 304 303 305 304
265 266 267 270 272 273 275 277 279 282 284 286 288 289 290 291 292 296 298 296 295 295 295 293 289 289 289 290 292 294 296 295 297 294 289 288 291 296 300 304 304 306 305
263 265 266 267 269 271 273 275 278 280 283 283 285 286 288 291 294 296 296 294 295 295 294 291 289 288 289 292 292 295 295 295 296 292 288 287 291 297 301 305 311 313 305
261 262 265 267 268 271 273 275 276 277 278 282 284 286 288 292 294 293 293 293 294 295 295 292 292 291 293 294 295 298 296 297 293 287 283 285 291 296 302 306 316 311 313
265 266 267 269 270 271 272 273 275 276 278 279 282 286 290 291 291 290 291 292 292 292 292 292 292 294 295 296 297 297 296 294 286 281 282 286 291 295 302 305 310 317 317
267 268 269 270 272 273 274 275 275 276 278 280 285 288 288 288 288 289 289 289 290 291 291 293 293 295 297 297 297 297 294 288 283 280 284 284 290 295 300 302 307 313 321
267 268 269 270 271 271 272 273 274 276 278 282 286 285 284 284 286 288 288 289 290 292 294 295 296 297 297 297 295 292 289 285 281 285 283 285 290 294 297 298 303 308 312
271 272 273 275 274 274 274 274 273 274 280 283 282 282 283 285 286 286 288 290 291 294 296 294 295 297 299 295 292 291 286 285 285 285 285 285 290 292 296 296 298 301 304
274 276 276 277 278 278 278 277 275 276 276 278 278 277 278 280 284 289 290 290 293 296 297 298 298 298 294 293 291 288 285 285 285 286 285 288 291 292 293 294 293 296 297
272 272 274 272 273 274 273 271 270 271 272 272 272 271 274 280 284 285 287 289 293 296 297 298 299 295 293 293 291 289 287 287 287 289 290 291 292 292 293 293 292 290 291
267 265 268 267 270 267 267 267 267 266 266 266 267 272 276 276 278 281 281 288 293 295 295 297 295 292 292 292 290 289 288 288 290 292 293 292 291 292 292 291 290 288 287
264 259 259 259 264 267 269 266 265 267 264 269 270 272 271 273 274 275 281 287 290 294 297 298 294 292 291 290 290 290 288 287 291 294 294 293 292 292 292 290 289 287 285
270 260 263 262 264 264 270 271 272 270 269 263 262 263 267 267 270 276 282 286 290 295 296 298 297 295 293 291 291 289 288 290 292 293 292 291 292 292 290 289 288 287 287
268 267 265 265 266 267 268 269 263 264 261 257 259 261 263 264 269 278 283 285 291 296 297 298 301 297 293 292 291 291 291 292 292 291 291 292 292 291 290 291 290 289 288
270 265 265 268 274 253 254 261 260 261 253 255 256 259 261 266 273 279 282 288 291 295 297 299 302 302 298 293 292 292 293 292 292 293 293 293 291 290 291 291 291 291 291